Guatemala City, Guatemala

10:42 AM CST on July 22, 2018 (GMT -0600)
La Aurora International | | Change Station

Elev 4885 ft 14.58 °N, 90.52 °W | Updated 42 minutes ago

Mostly Cloudy
Mostly Cloudy
70 °F
Feels Like 70 °F
N
16
Wind Variable Wind from North

Today
High -- | Low -- °F
--% Chance of Precip.
Yesterday
High -- | Low -- °F
Precip. -- in
Pressure 30.33 in
Visibility 6.2 miles
Clouds Scattered Clouds 1800 ft
Mostly Cloudy 20000 ft
Dew Point 59 °F
Humidity 68%
Rainfall 0.00 in
Snow Depth Not available.
5:42 AM 6:34 PM
Waxing Gibbous, 77% visible
METAR MGGT 221600Z 36014KT 9999 SCT018 BKN200 21/15 Q1027 A3033
Pressure 30.33 in
Visibility 6.2 miles
Clouds Scattered Clouds 1800 ft
Mostly Cloudy 20000 ft
Dew Point 59 °F
Humidity 68%
Rainfall 0.00 in
Snow Depth Not available.
5:42 AM 6:34 PM
Waxing Gibbous, 77% visible
METAR MGGT 221600Z 36014KT 9999 SCT018 BKN200 21/15 Q1027 A3033

Get Severe Weather Alerts

Thanks for signing up!

Be on the lookout for a verification email in your inbox.

You'll start receiving the daily forecast at 6 AM.

×

10-Day Weather Forecast

No radar image for this location.
×

Almanac

Astronomy

Jul. 22, 2018 Rise Set
Actual Time
Civil Twilight
Nautical Twilight
Astronomical Twilight
Moon
Length of Visible Light
Length of Day
Tomorrow will be .
, % of the Moon is Illuminated

Today's Extremes

Country Highs Country Lows

Community

WunderPhotos

Category 6

Welcome to Category 6. This is the collective home for Weather Underground's featured writeups by Dr. Jeff Masters (right), Bob Henson (left), Chris Burt, and other regular contributors.

Nearby

Air Quality

  Air Quality AQ Index Pollutant
Not available.

Snow Depth

Station Depth Elevation

Earthquake Activity

City Distance Mag. Time & Date
Minimum magnitude displayed is 2.5.

Coastal Water Temperatures

Place Temperature

Stations

Nearby Weather Stations

Station Location Temp. Windchill Dew Point Humidity Wind Precip. Elev Updated Type